TimeMDT,TemperatureF,Dew PointF,Humidity,Sea Level PressureIn,VisibilityMPH,Wind Direction,Wind SpeedMPH,Gust SpeedMPH,PrecipitationIn,Events,Conditions,WindDirDegrees,DateUTC
12:53 AM,35.1,23.0,61,30.24,10.0,North,9.2,-,N/A,,Clear,350,2013-10-05 06:53:00
1:53 AM,30.0,21.9,72,30.27,10.0,Calm,Calm,-,N/A,,Clear,0,2013-10-05 07:53:00
2:53 AM,28.9,21.9,75,30.26,10.0,East,5.8,-,N/A,,Clear,80,2013-10-05 08:53:00
3:53 AM,30.9,19.9,64,30.26,10.0,ENE,3.5,-,N/A,,Clear,60,2013-10-05 09:53:00
4:53 AM,28.0,19.9,72,30.29,10.0,Calm,Calm,-,N/A,,Clear,0,2013-10-05 10:53:00
5:53 AM,25.0,19.0,78,30.30,10.0,Calm,Calm,-,N/A,,Clear,0,2013-10-05 11:53:00
6:53 AM,34.0,18.0,52,30.28,10.0,NNW,12.7,-,N/A,,Clear,340,2013-10-05 12:53:00
7:53 AM,36.0,19.0,50,30.29,10.0,NNW,13.8,18.4,N/A,,Clear,330,2013-10-05 13:53:00
8:53 AM,41.0,19.9,43,30.30,10.0,North,12.7,20.7,N/A,,Clear,350,2013-10-05 14:53:00
9:53 AM,44.1,21.0,40,30.31,10.0,NNW,11.5,21.9,N/A,,Clear,340,2013-10-05 15:53:00
10:53 AM,48.0,21.0,34,30.30,10.0,NNW,13.8,19.6,N/A,,Clear,330,2013-10-05 16:53:00
11:53 AM,51.1,19.0,28,30.28,10.0,Variable,3.5,-,N/A,,Clear,0,2013-10-05 17:53:00
12:53 PM,54.0,21.0,28,30.26,10.0,North,11.5,-,N/A,,Clear,10,2013-10-05 18:53:00
1:53 PM,55.9,19.9,25,30.25,10.0,North,8.1,-,N/A,,Clear,10,2013-10-05 19:53:00
2:53 PM,57.9,17.1,20,30.23,10.0,WNW,12.7,16.1,N/A,,Clear,300,2013-10-05 20:53:00
3:53 PM,59.0,18.0,20,30.21,10.0,NW,16.1,25.3,N/A,,Clear,320,2013-10-05 21:53:00
4:53 PM,57.9,18.0,21,30.23,10.0,NNW,11.5,21.9,N/A,,Clear,330,2013-10-05 22:53:00
5:53 PM,55.9,17.1,22,30.26,10.0,NW,6.9,21.9,N/A,,Clear,320,2013-10-05 23:53:00
6:53 PM,51.1,17.1,26,30.25,10.0,NNW,13.8,23.0,N/A,,Clear,330,2013-10-06 00:53:00
7:53 PM,48.0,21.0,34,30.29,10.0,NNW,8.1,-,N/A,,Clear,340,2013-10-06 01:53:00
8:53 PM,44.1,21.9,42,30.30,10.0,ESE,5.8,-,N/A,,Clear,110,2013-10-06 02:53:00
9:53 PM,41.0,23.0,49,30.32,10.0,East,4.6,-,N/A,,Clear,90,2013-10-06 03:53:00
10:53 PM,39.9,23.0,51,30.31,10.0,East,4.6,-,N/A,,Clear,90,2013-10-06 04:53:00
11:53 PM,34.0,21.9,61,30.31,10.0,Calm,Calm,-,N/A,,Clear,0,2013-10-06 05:53:00